DK0KTL-4 Weather Reports


time (UTC)temp
C
wind
direction
speed
KPH
gust
KPH
rain 1hr
cm
rain 24hr
cm
rain mn
cm
humidity
%
barometer
mb
20260507085829 8 325 1.6 9.7 0.08 2.64 2.64 95 1010.9
20260507085329 8 277 1.6 8.0 0.08 2.64 2.64 95 1010.6
20260507084828 8 250 1.6 4.8 0.10 2.64 2.64 95 1010.5
20260507084328 8 285 1.6 4.8 0.10 2.64 2.64 95 1010.5
20260507083828 9 205 1.6 8.0 0.08 2.62 2.62 95 1010.3
20260507083327 9 271 1.6 8.0 0.08 2.62 2.62 96 1010.2
20260507081326 9 344 1.6 4.8 0.08 2.59 2.59 96 1009.8
20260507074325 9 294 1.6 4.8 0.05 2.54 2.54 95 1009.4
20260507073824 9 263 1.6 6.4 0.05 2.54 2.54 95 1009.4
20260507073324 9 322 1.6 4.8 0.05 2.54 2.54 96 1009.3
20260507072824 10 286 0.0 6.4 0.03 2.51 2.51 96 1009.2
20260507072323 9 291 0.0 3.2 0.03 2.51 2.51 96 1009.2
20260507071323 10 248 1.6 3.2 0.05 2.51 2.51 95 1009.0
20260507065822 10 322 1.6 4.8 0.23 2.51 2.51 95 1008.8
20260507063821 9 334 1.6 4.8 0.36 2.49 2.49 95 1008.5
20260507062820 10 317 1.6 6.4 0.41 2.49 2.49 95 1008.3
20260507062320 10 106 1.6 9.7 0.43 2.49 2.49 95 1008.3
20260507061319 10 70 1.6 11.3 0.51 2.46 2.46 95 1008.3
20260507055819 10 331 0.0 1.6 0.53 2.29 2.29 95 1008.1
20260507055318 10 297 0.0 3.2 0.58 2.26 2.26 95 1008.0
20260507054818 10 313 0.0 3.2 0.58 2.21 2.21 95 1007.9
20260507053817 10 286 1.6 4.8 0.61 2.13 2.13 95 1007.8
20260507053317 10 317 1.6 4.8 0.61 2.11 2.11 95 1007.8
20260507052317 10 258 1.6 4.8 0.64 2.06 2.06 95 1007.6
20260507051816 10 284 0.0 6.4 0.64 2.01 2.01 95 1007.6
20260507050315 11 5 1.6 3.2 0.58 1.80 1.80 95 1007.3
20260507045815 11 248 3.2 6.4 0.61 1.75 1.75 95 1007.3
20260507044815 11 251 1.6 8.0 0.64 1.63 1.63 95 1007.2
20260507044314 11 103 1.6 6.4 0.66 1.57 1.57 95 1007.1
20260507042313 11 260 0.0 3.2 0.61 1.42 1.42 95 1006.8
20260507041312 11 295 1.6 3.2 0.61 1.32 1.32 95 1006.7
20260507040312 11 308 0.0 3.2 0.66 1.22 1.22 95 1006.5
20260507035311 11 264 0.0 4.8 0.61 1.02 1.02 95 1006.5
20260507034311 11 305 0.0 4.8 0.51 0.91 0.91 95 1006.5
20260507033810 11 350 0.0 3.2 0.46 0.86 0.86 95 1006.6
20260507032310 11 244 0.0 3.2 0.43 0.81 0.81 95 1006.5
20260507031309 11 244 0.0 1.6 0.36 0.71 0.71 95 1006.5
20260507025308 11 293 0.0 1.6 0.05 0.41 0.41 95 1006.5
20260507023807 11 293 0.0 0.0 0.08 0.41 0.41 95 1006.5
20260507023307 11 293 0.0 0.0 0.08 0.41 0.41 95 1006.4
20260507022306 11 293 0.0 1.6 0.05 0.38 0.38 95 1006.5
20260507021806 11 293 0.0 0.0 0.03 0.36 0.36 95 1006.4
20260507020305 11 293 0.0 1.6 0.03 0.36 0.36 95 1006.4
20260507015306 11 293 0.0 1.6 0.03 0.36 0.36 94 1006.4
20260507014304 11 293 0.0 0.0 0.03 0.36 0.36 94 1006.3
20260507013303 11 293 0.0 0.0 0.00 0.33 0.33 94 1006.3
20260507012306 11 293 0.0 1.6 0.03 0.33 0.33 94 1006.1
20260507011302 11 293 0.0 0.0 0.08 0.33 0.33 94 1006.1
20260507010301 11 293 0.0 0.0 0.13 0.33 0.33 94 1006.2
20260507004300 11 293 0.0 0.0 0.28 0.33 0.33 93 1006.1
20260507003800 11 293 0.0 0.0 0.30 0.33 0.33 93 1006.2
20260507002259 12 293 0.0 1.6 0.30 0.30 0.30 93 1006.2
20260507001759 12 293 0.0 0.0 0.28 0.28 0.28 93 1006.1
20260507001259 12 293 0.0 1.6 0.25 0.25 0.25 93 1006.2
20260506235257 12 292 0.0 0.0 0.13 0.13 0.13 92 1006.4
20260506234757 12 292 0.0 0.0 0.10 0.10 0.10 92 1006.4
20260506234257 12 292 0.0 0.0 0.05 0.05 0.05 92 1006.4
20260506233756 12 292 0.0 0.0 0.03 0.03 0.03 92 1006.3
20260506233256 12 292 0.0 0.0 0.00 0.00 0.00 92 1006.3
20260506232756 12 292 0.0 0.0 0.00 0.00 0.00 92 1006.2
20260506232256 12 292 0.0 0.0 0.00 0.00 0.00 92 1006.2
20260506231255 12 292 0.0 0.0 0.00 0.00 0.00 92 1006.2
20260506230755 12 292 0.0 1.6 0.00 0.00 0.00 92 1006.1
20260506230255 12 292 0.0 1.6 0.00 0.00 0.00 92 1006.2
20260506225754 12 266 0.0 1.6 0.00 0.00 0.00 92 1006.1
20260506225254 12 317 0.0 1.6 0.00 0.00 0.00 92 1006.1
20260506224754 12 23 0.0 0.0 0.00 0.00 0.00 92 1006.0
20260506224253 12 23 0.0 0.0 0.00 0.00 0.00 92 1006.0
20260506223253 12 23 0.0 0.0 0.00 0.00 0.00 92 1006.0
20260506222752 12 23 0.0 0.0 0.00 0.00 0.00 92 1006.0
20260506222252 12 23 0.0 1.6 0.00 0.00 0.00 92 1005.9
20260506221752 12 23 0.0 1.6 0.00 0.00 0.00 92 1005.9
20260506221252 12 23 0.0 1.6 0.00 0.00 0.00 92 1005.9
20260506220751 12 23 0.0 0.0 0.00 0.00 0.00 92 1005.9
20260506220251 12 23 0.0 0.0 0.00 0.00 0.00 92 1005.8
20260506215751 12 23 0.0 1.6 0.00 0.00 0.00 92 1005.8
20260506215250 12 23 0.0 1.6 0.00 0.03 0.00 91 1005.8
20260506214750 12 23 0.0 0.0 0.00 0.03 0.00 91 1005.8
20260506214250 12 23 0.0 0.0 0.00 0.03 0.00 91 1005.6
20260506213750 12 23 0.0 0.0 0.00 0.03 0.00 91 1005.6
20260506213249 12 23 0.0 1.6 0.00 0.03 0.00 90 1005.5
20260506212749 12 35 0.0 1.6 0.00 0.03 0.00 90 1005.3
20260506212249 12 140 0.0 0.0 0.00 0.03 0.00 90 1005.2
20260506211748 12 140 0.0 0.0 0.00 0.03 0.00 90 1005.3
20260506211248 12 140 0.0 0.0 0.00 0.03 0.00 90 1005.4
20260506210748 12 140 0.0 0.0 0.00 0.03 0.00 89 1005.4
20260506210248 12 140 0.0 0.0 0.00 0.03 0.00 89 1005.3
20260506205747 12 140 0.0 0.0 0.00 0.03 0.00 89 1005.4
20260506204747 12 138 0.0 0.0 0.00 0.74 0.00 89 1005.5
20260506204246 12 138 0.0 0.0 0.00 0.74 0.00 89 1005.5
20260506203746 12 138 0.0 0.0 0.00 0.74 0.00 89 1005.5
20260506203246 12 138 0.0 1.6 0.00 0.74 0.00 89 1005.5
20260506202745 12 349 0.0 0.0 0.00 0.74 0.00 89 1005.3
20260506202245 12 349 1.6 0.0 0.00 0.74 0.00 89 1005.4
20260506201245 12 219 0.0 3.2 0.00 0.74 0.00 89 1005.4
20260506200744 12 290 0.0 1.6 0.00 0.74 0.00 89 1005.4
20260506200244 12 288 0.0 1.6 0.00 0.74 0.00 89 1005.5
20260506195744 12 292 0.0 3.2 0.00 0.74 0.00 89 1005.5
20260506195244 12 264 0.0 3.2 0.00 1.91 0.00 89 1005.4
20260506194744 12 270 0.0 3.2 0.00 1.91 0.00 88 1005.3
20260506194243 12 308 0.0 3.2 0.00 1.91 0.00 88 1005.3
20260506193743 13 286 0.0 4.8 0.00 1.91 0.00 87 1005.2
20260506192242 13 314 1.6 6.4 0.00 1.91 2.44 84 1004.9
20260506191741 13 275 1.6 4.8 0.00 1.91 2.44 83 1004.9
20260506191241 13 298 1.6 3.2 0.00 1.91 2.44 82 1004.8
20260506190741 13 276 3.2 6.4 0.00 1.91 2.44 80 1004.8
20260506190241 13 311 4.8 9.7 0.00 1.91 2.44 79 1004.6
20260506184740 14 355 3.2 9.7 0.00 2.46 2.44 79 1004.4
20260506184239 14 232 3.2 11.3 0.00 2.46 2.44 79 1004.5
20260506183739 14 261 3.2 8.0 0.00 2.46 2.44 79 1004.4
20260506182739 15 239 4.8 19.3 0.00 2.46 2.44 79 1004.5
20260506182238 15 294 1.6 9.7 0.00 2.46 2.44 82 1004.3
20260506180737 16 299 0.0 4.8 0.00 2.46 2.44 80 1004.2
20260506180237 16 295 1.6 3.2 0.00 2.46 2.44 79 1004.0
20260506175737 16 306 1.6 8.0 0.00 2.46 2.44 78 1003.8
20260506175237 16 185 1.6 4.8 0.00 2.46 2.44 78 1003.7
20260506174236 16 248 1.6 3.2 0.00 2.46 2.44 78 1003.6
20260506173736 16 311 3.2 11.3 0.00 2.46 2.44 77 1003.6
20260506172735 17 313 1.6 3.2 0.00 2.46 2.44 76 1003.4
20260506172235 17 199 3.2 11.3 0.00 2.46 2.44 76 1003.4
20260506171735 17 321 3.2 9.7 0.00 2.46 2.44 76 1003.4
20260506170734 17 325 3.2 8.0 0.00 2.46 2.44 75 1003.3
20260506165733 17 271 3.2 9.7 0.00 2.46 2.44 74 1003.2
20260506165233 18 355 1.6 6.4 0.00 2.46 2.44 73 1003.2
20260506164733 18 264 1.6 6.4 0.00 2.46 2.44 73 1003.1
20260506164233 18 261 1.6 9.7 0.00 2.46 2.44 70 1003.1
20260506163732 18 154 3.2 8.0 0.00 2.46 2.44 68 1003.1
20260506163232 19 308 1.6 8.0 0.00 2.46 2.44 66 1003.0
20260506162732 20 217 1.6 6.4 0.00 2.46 2.44 64 1003.1
20260506162510 20 316 1.6 6.4 0.00 2.46 2.44 66 1003.2
20260506162231 20 316 1.6 6.4 0.00 2.46 2.44 66 1003.2
20260506161731 20 5 1.6 9.7 0.00 2.46 2.44 65 1003.2
20260506160731 19 248 1.6 9.7 0.00 2.46 2.44 65 1003.1
20260506160230 19 108 1.6 3.2 0.00 2.46 2.44 64 1003.2
20260506155730 19 355 1.6 4.8 0.00 2.46 2.44 56 1003.2
20260506155230 19 324 1.6 8.0 0.00 2.46 2.44 53 1003.2
20260506154229 19 169 4.8 9.7 0.00 2.46 2.44 52 1003.0
20260506153228 20 189 4.8 8.0 0.00 2.46 2.44 52 1003.2
20260506152728 20 224 4.8 9.7 0.00 2.46 2.44 50 1003.2
20260506152228 20 223 4.8 11.3 0.00 2.46 2.44 50 1003.3
20260506151728 20 196 3.2 11.3 0.00 2.46 2.44 51 1003.4
20260506151227 21 246 3.2 8.0 0.00 2.46 2.44 55 1003.5
20260506145726 20 232 3.2 12.9 0.00 2.46 2.44 51 1003.5
20260506145226 20 217 4.8 12.9 0.00 2.46 2.44 52 1003.4
20260506144726 20 230 4.8 14.5 0.00 2.46 2.44 52 1003.5
20260506144226 20 184 4.8 9.7 0.00 2.46 2.44 51 1003.6
20260506143725 20 164 4.8 12.9 0.00 2.46 2.44 50 1003.6
20260506143225 20 341 4.8 8.0 0.00 2.46 2.44 54 1003.7
20260506142725 20 106 3.2 14.5 0.00 2.46 2.44 55 1003.5
20260506142224 20 163 4.8 16.1 0.00 2.46 2.44 55 1003.6
20260506141724 21 179 4.8 14.5 0.00 2.46 2.44 53 1003.6
20260506141224 21 241 4.8 11.3 0.00 2.46 2.44 51 1003.6
20260506140724 21 142 4.8 14.5 0.00 2.46 2.44 51 1003.6
20260506135723 20 305 6.4 16.1 0.00 2.46 2.44 54 1003.6
20260506135223 20 194 6.4 14.5 0.00 2.46 2.44 54 1003.7
20260506134222 21 132 4.8 11.3 0.00 2.46 2.44 51 1003.8
20260506133722 21 142 4.8 11.3 0.00 2.46 2.44 52 1003.8
20260506133221 21 232 6.4 14.5 0.00 2.46 2.44 51 1003.6
20260506132721 20 174 6.4 16.1 0.00 2.46 2.44 53 1003.8
20260506131220 20 129 6.4 14.5 0.00 2.46 2.44 54 1003.9
20260506130220 20 238 6.4 17.7 0.00 2.46 2.44 51 1004.1
20260506125719 20 234 6.4 14.5 0.00 2.46 2.44 52 1004.0
20260506124719 21 195 4.8 14.5 0.00 2.46 2.44 50 1004.1
20260506124219 20 242 3.2 11.3 0.00 2.46 2.44 57 1004.1
20260506123218 20 150 6.4 9.7 0.00 2.46 2.44 53 1004.0
20260506122217 20 227 6.4 12.9 0.00 2.46 2.44 55 1004.0
20260506121717 20 242 6.4 14.5 0.00 2.46 2.44 53 1004.0
20260506120216 19 173 8.0 12.9 0.00 2.46 2.44 58 1004.1
20260506114715 19 232 6.4 12.9 0.00 2.46 2.44 55 1004.0
20260506114215 19 99 6.4 16.1 0.00 2.46 2.44 56 1004.0
20260506112714 18 288 8.0 12.9 0.00 2.46 2.44 62 1004.1
20260506111213 17 286 4.8 12.9 0.00 2.46 2.44 66 1004.0
20260506110713 17 230 4.8 11.3 0.00 2.46 2.44 63 1004.1
20260506110213 17 274 4.8 12.9 0.00 2.46 2.44 65 1004.1
20260506105713 17 342 4.8 9.7 0.00 2.46 2.44 63 1004.1
20260506105212 17 261 6.4 16.1 0.00 2.46 2.44 61 1004.1
20260506104212 17 240 4.8 19.3 0.00 2.46 2.44 62 1004.2
20260506103711 17 157 4.8 12.9 0.00 2.46 2.44 66 1004.3
20260506103211 17 343 6.4 14.5 0.00 2.46 2.44 62 1004.3
20260506102210 17 263 4.8 11.3 0.00 2.46 2.44 63 1004.4
20260506101710 17 341 6.4 14.5 0.00 2.46 2.44 62 1004.4
20260506100710 17 128 4.8 11.3 0.00 2.46 2.44 65 1004.4
20260506100209 17 250 4.8 9.7 0.00 2.46 2.44 64 1004.5
20260506095709 17 57 8.0 11.3 0.00 2.46 2.44 64 1004.6
20260506095209 17 213 8.0 22.5 0.00 2.46 2.44 61 1004.5
20260506094709 17 234 8.0 12.9 0.00 2.46 2.44 65 1004.4
20260506094208 18 157 6.4 22.5 0.00 2.46 2.44 61 1004.3
20260506093208 17 200 6.4 17.7 0.00 2.46 2.44 63 1004.2
20260506092207 17 192 8.0 17.7 0.00 2.46 2.44 62 1004.1
20260506091206 18 225 8.0 16.1 0.00 2.46 2.44 67 1004.1